Weather History for Elkins, WV

Change the Weather History Date:

Sunday, November 30, 2014

  Actual Average Record
Temperature  
Mean Temperature 56 °F 37 °F  
Max Temperature 63 °F 47 °F 73 °F (2001)
Min Temperature 49 °F 27 °F -3 °F (1929)
Degree Days  
Heating Degree Days 9 28  
Month to date heating degree days 821 695  
Since 1 July heating degree days 1356 1284  
Cooling Degree Days 0 0  
Month to date cooling degree days 0 0  
Year to date cooling degree days 505 475  
Growing Degree Days 2 (Base 50)    
Moisture  
Dew Point 45 °F    
Average Humidity 65    
Maximum Humidity 77    
Minimum Humidity 52    
Precipitation  
Precipitation 0.00 in 0.12 in 1.25 in (1967)
Month to date precipitation 2.38 3.38  
Year to date precipitation 38.38 42.67  
Snow  
Snow 0.00 in - - ()
Month to date snowfall 7.6  
Since 1 September snowfall 7.6  
Snow Depth 0.00 in    
Sea Level Pressure  
Sea Level Pressure 30.10 in    
Wind  
Wind Speed 10 mph (SSW)    
Max Wind Speed 24 mph    
Max Gust Speed 34 mph    
Visibility 10 miles    
Events      
T = Trace of Precipitation, MM = Missing Value Source: NWS Daily Summary

Daily Weather History Graph

Daily Weather History Graph

Search for Another Location

Airport:

Trip Planner

Search our weather history database for the weather conditions in past years. The results will help you decide how hot, cold, wet, or windy it might be!

Date:

Astronomy

Nov. 30, 2014 Rise Set
Actual Time 7:17 AM EST 4:58 PM EST
Civil Twilight 6:48 AM EST 5:27 PM EST
Nautical Twilight 6:15 AM EST 6:00 PM EST
Astronomical Twilight 5:43 AM EST 6:32 PM EST
Moon 1:23 PM EST (11/30) 12:50 AM EST (11/30)
Length of Visible Light 10h 38m
Length of Day
9h 40m
Waxing Gibbous, 64% of the Moon is Illuminated
Nov 30
Waxing Gibbous
Dec 6
Full
Dec 14
Last Quarter
Dec 21
New
Dec 28
First Quarter

Hourly Weather History & Observations

Time (EST) Temp. Dew Point Humidity Pressure Visibility Wind Dir Wind Speed Gust Speed Precip Events Conditions
12:51 AM 50.0 °F 39.9 °F 68% 30.10 in 10.0 mi South 8.1 mph - N/A   Overcast
1:51 AM 51.1 °F 41.0 °F 68% 30.10 in 10.0 mi South 8.1 mph - N/A   Overcast
2:51 AM 50.0 °F 41.0 °F 71% 30.10 in 10.0 mi South 4.6 mph - N/A   Overcast
3:51 AM 51.1 °F 42.1 °F 71% 30.10 in 10.0 mi SSE 4.6 mph - N/A   Overcast
4:51 AM 52.0 °F 43.0 °F 71% 30.09 in 10.0 mi South 4.6 mph - N/A   Overcast
5:51 AM 53.1 °F 44.1 °F 71% 30.09 in 10.0 mi SW 9.2 mph - N/A   Overcast
6:51 AM 54.0 °F 45.0 °F 72% 30.09 in 10.0 mi South 5.8 mph - N/A   Overcast
7:51 AM 54.0 °F 46.0 °F 75% 30.09 in 10.0 mi South 5.8 mph - N/A   Overcast
8:51 AM 55.0 °F 46.0 °F 72% 30.10 in 10.0 mi South 5.8 mph - N/A   Overcast
9:51 AM 55.9 °F 46.9 °F 72% 30.11 in 10.0 mi South 8.1 mph - N/A   Overcast
10:51 AM 57.9 °F 46.9 °F 67% 30.11 in 10.0 mi SW 13.8 mph 20.7 mph N/A   Overcast
11:51 AM 60.1 °F 46.9 °F 62% 30.08 in 10.0 mi WSW 17.3 mph 25.3 mph N/A   Overcast
12:51 PM 61.0 °F 46.0 °F 58% 30.06 in 10.0 mi WSW 15.0 mph 27.6 mph N/A   Overcast
1:51 PM 61.0 °F 46.0 °F 58% 30.05 in 10.0 mi SW 12.7 mph - N/A   Overcast
2:51 PM 62.1 °F 45.0 °F 53% 30.05 in 10.0 mi WSW 11.5 mph 19.6 mph N/A   Mostly Cloudy
3:51 PM 61.0 °F 44.1 °F 54% 30.07 in 10.0 mi WSW 11.5 mph 23.0 mph N/A   Mostly Cloudy
4:51 PM 60.1 °F 44.1 °F 55% 30.10 in 10.0 mi SW 18.4 mph 33.4 mph N/A   Overcast
5:51 PM 60.1 °F 44.1 °F 55% 30.11 in 10.0 mi SW 16.1 mph 25.3 mph N/A   Overcast
6:51 PM 60.1 °F 44.1 °F 55% 30.13 in 10.0 mi SW 12.7 mph 23.0 mph N/A   Overcast
7:51 PM 61.0 °F 44.1 °F 54% 30.14 in 10.0 mi WSW 13.8 mph 20.7 mph N/A   Overcast
8:51 PM 60.1 °F 45.0 °F 57% 30.15 in 10.0 mi SW 9.2 mph 23.0 mph N/A   Overcast
9:51 PM 60.1 °F 46.0 °F 60% 30.16 in 10.0 mi SSW 10.4 mph - N/A   Overcast
10:51 PM 60.1 °F 46.9 °F 62% 30.16 in 10.0 mi SW 12.7 mph - N/A   Overcast
11:51 PM 60.1 °F 46.9 °F 62% 30.16 in 10.0 mi SSW 10.4 mph 23.0 mph N/A   Overcast